Regional Weather Roundup
Issued by NWS

Home | Current Version | Previous Version | Graphics & Text | Print | Product List | Glossary Off
Versions: 1 2 3 4 5 6 7 8 9 10 11 12 13 14 15 16 17 18 19 20 21 22 23 24 25 26 27 28 29 30 31 32 33 34 35 36 37 38 39 40 41 42 43 44 45 46 47 48 49 50

000
ASUS43 KTOP 221808
RWRKS

WEATHER ROUNDUP FOR KANSAS
NATIONAL WEATHER SERVICE GOODLAND KS
1200 PM CST WED NOV 22 2017

NOTE:  "FAIR" INDICATES FEW OR NO CLOUDS BELOW 12,000 FEET WITH NO
SIGNIFICANT WEATHER AND/OR OBSTRUCTIONS TO VISIBILITY.

KSZ001>006-013>018-027>032-041>047-221900-
NORTHWEST KANSAS

CITY           SKY/WX    TMP DP  RH WIND       PRES   REMARKS
GOODLAND       CLOUDY    64  32  30 NW6       30.19F
6HR MIN TEMP:  32; 6HR MAX TEMP:  64;

HAYS           SUNNY     50  22  33 SW17G25   30.26F
HILL CITY      CLOUDY    52  28  39 S14G21    30.22F
6HR MIN TEMP:  26; 6HR MAX TEMP:  52;

RUSSELL        SUNNY     45  17  32 S21G26    30.26F
6HR MIN TEMP:  20; 6HR MAX TEMP:  45;

$$

KSZ061>065-074>080-084>089-221900-
SOUTHWEST KANSAS

CITY           SKY/WX    TMP DP  RH WIND       PRES   REMARKS
DODGE CITY     SUNNY     50  21  32 S21       30.27F
6HR MIN TEMP:  26; 6HR MAX TEMP:  50; 6HR PCP: TRACE;

ELKHART        CLOUDY    60  37  41 NW6       30.25F
GARDEN CITY    SUNNY     52  28  39 SW14      30.25F
6HR MIN TEMP:  25; 6HR MAX TEMP:  52;

GREAT BEND     SUNNY     46  16  30 S17       30.30F
LIBERAL        SUNNY     55  30  38 SW16      30.27F
PRATT          SUNNY     43  11  27 S12       30.33F
6HR MIN TEMP:  20; 6HR MAX TEMP:  44;

$$

KSZ066>073-081>083-090>101-221900-
SOUTHEAST KANSAS

CITY           SKY/WX    TMP DP  RH WIND       PRES   REMARKS
CHANUTE        SUNNY     37  16  42 VRB3      30.40F
6HR MIN TEMP:  19; 6HR MAX TEMP:  38;

COFFEYVILLE    SUNNY     39  19  44 NW6       30.42F
6HR MIN TEMP:  21; 6HR MAX TEMP:  39;

HUTCHINSON     SUNNY     40  15  36 S9        30.35F
6HR MIN TEMP:  17; 6HR MAX TEMP:  40;

MEDICINE LODGE   N/A     40  15  36 VRB6      30.36F
NEWTON         SUNNY     38  15  39 W12       30.37F WCI  30
PARSONS        SUNNY     39  18  42 CALM      30.42F
6HR MIN TEMP:  18; 6HR MAX TEMP:  39;

WICHITA INTL   MOSUNNY   38  16  40 VRB3      30.39F
6HR MIN TEMP:  20; 6HR MAX TEMP:  38;

WICHITA JABRA  SUNNY     37  15  40 SW6       30.38F
6HR MIN TEMP:  17; 6HR MAX TEMP:  37;

WICHITA MCCONL SUNNY     37  14  38 SW6       30.38F
WINFIELD       CLOUDY    39  18  42 VRB5      30.41F
6HR MIN TEMP:  19; 6HR MAX TEMP:  39;

$$

KSZ007>012-019>026-033>040-048>060-102>105-221900-
NORTHEAST KANSAS

CITY           SKY/WX    TMP DP  RH WIND       PRES   REMARKS
CONCORDIA      CLOUDY    37  16  42 S12       30.29F WCI  29
6HR MIN TEMP:  16; 6HR MAX TEMP:  37;

EMPORIA        SUNNY     37  14  38 S3        30.38F
6HR MIN TEMP:  17; 6HR MAX TEMP:  37;

LAWRENCE       SUNNY     36  16  44 CALM      30.39F
6HR MIN TEMP:  15; 6HR MAX TEMP:  36;

MANHATTAN      CLOUDY    37  14  38 SW9       30.37F
6HR MIN TEMP:  14; 6HR MAX TEMP:  37;

MARYSVILLE     CLOUDY    34  18  51 S12G17    30.32F WCI  25
OLATHE IND     SUNNY     35  16  45 S5        30.39F
6HR MIN TEMP:  17; 6HR MAX TEMP:  35; 6HR PCP: TRACE;

OLATHE EXE     SUNNY     34  16  47 VRB3      30.39F
6HR MIN TEMP:  18; 6HR MAX TEMP:  34; 6HR PCP: TRACE;

SALINA         SUNNY     41  16  36 S7        30.35F
6HR MIN TEMP:  20; 6HR MAX TEMP:  41;

TOPEKA BILLARD SUNNY     37  14  38 SW6       30.37F
6HR MIN TEMP:  18; 6HR MAX TEMP:  37;

TOPEKA FORBES  SUNNY     37  15  40 S6        30.37F
6HR MIN TEMP:  17; 6HR MAX TEMP:  38;

$$




USA.gov is the U.S. government's official web portal to all federal, state and local government web resources and services.